Regional Weather Roundup
Issued by NWS

Home | Current Version | Previous Version | Graphics & Text | Print | Product List | Glossary On
Versions: 1 2 3 4 5 6 7 8 9 10 11 12 13 14 15 16 17 18 19 20 21 22 23 24 25 26 27 28 29 30 31 32 33 34 35 36 37 38 39 40 41 42 43 44 45 46 47 48 49 50
000
ASUS43 KLMK 312202
RWRKY
KENTUCKY REGIONAL WEATHER ROUNDUP
NATIONAL WEATHER SERVICE LOUISVILLE KY
600 PM EDT FRI JUL 31 2015

NOTE "FAIR" INDICATES FEW OR NO CLOUDS BELOW 12,000 FEET
WITH NO SIGNIFICANT WEATHER AND/OR OBSTRUCTIONS TO VISIBILITY.

KYZ001>023-026-027-061>063-070>075-312300-
WESTERN AND SOUTH CENTRAL KENTUCKY

CITY           SKY/WX    TMP DP  RH WIND       PRES   REMARKS
PADUCAH        MOSUNNY   90  67  46 N7        30.03F HX  93
HENDERSON      MOSUNNY   90  66  45 W3        30.01S HX  92
OWENSBORO      SUNNY     89  62  40 NW7       30.02F
HOPKINSVILLE   MOSUNNY   87  65  47 NW6       30.03F
BOWLING GREEN  PTSUNNY   89  60  37 NW8       30.02F
GLASGOW        NOT AVBL
$$

KYZ024-025-028>034-038-045-046-053-312300-
NORTH CENTRAL KENTUCKY

CITY           SKY/WX    TMP DP  RH WIND       PRES   REMARKS
LOUISVILLE/SDF MOSUNNY   89  56  32 W13       29.99F
LOUISVILLE/LOU SUNNY     89  55  31 W7        30.00F
FORT KNOX      SUNNY     87  60  41 VRB6      30.00F
$$

KYZ035>037-039>044-047>052-055>060-089>105-312300-
NORTHEAST KENTUCKY

CITY           SKY/WX    TMP DP  RH WIND       PRES   REMARKS
LEXINGTON      MOSUNNY   86  60  41 NW9       30.01F
COVINGTON      MOSUNNY   86  60  41 W12       29.98F
FRANKFORT      MOSUNNY   86  57  37 NW7       30.00F
$$

KYZ054-064>069-076>088-106>120-312300-
SOUTHEAST KENTUCKY

CITY           SKY/WX    TMP DP  RH WIND       PRES   REMARKS
JACKSON        SUNNY     84  58  40 NW5       30.03F
LONDON         MOSUNNY   87  55  33 N7        30.03F
SOMERSET       NOT AVBL
MIDDLESBORO    NOT AVBL
MONTICELLO     CLEAR     87  61  41 NW3       30.05F
$$




USA.gov is the U.S. government's official web portal to all federal, state and local government web resources and services.